Location: Pulvis Stellarum Observatory
(41.6962°N, 71.4263°W)
Time: 21:19:10
(UTC-04:00)

Daily predictions for brighter satellites

Satellite Brightness Start Highest point End
(mag) Time Altitude Azimuth Time Altitude Azimuth Time Altitude Azimuth
SL-16 R/B 3.3 20:47:15 10° NW 20:52:38 45° WSW 20:58:00 10° S
Cosmos 1500 Rocket 3.7 20:50:15 10° S 20:54:38 86° W 20:59:05 10° N
S3M 4.3 20:50:51 10° NNW 20:56:56 71° W 21:03:01 10° S
USA 229 DEB 4.0 20:50:19 10° SW 20:57:15 78° NW 21:04:18 10° NNE
USA 229 4.0 20:50:25 10° SW 20:57:21 79° NW 21:04:24 10° NNE
Cosmos 1680 Rocket 3.7 20:52:43 10° NNW 20:57:57 63° ENE 21:03:10 10° SSE
Cosmos 405 3.1 20:55:18 10° N 20:58:56 69° E 21:02:31 10° SSE
H-2A R/B 4.2 20:58:47 10° E 21:01:04 13° ENE 21:03:21 10° NNE
Cosmos 923 Rocket 4.0 20:57:44 10° NNW 21:02:58 89° WSW 21:08:10 10° SSE
Cosmos 304 Rocket 3.8 20:58:27 10° NNW 21:03:17 75° ENE 21:08:05 10° SSE
SJ-11-01 4.5 21:00:12 10° S 21:04:54 80° WSW 21:09:41 10° NNW
Cosmos 1908 3.3 21:03:28 10° N 21:07:23 85° W 21:11:18 10° S
SPOT 5 3.2 21:03:24 10° SE 21:07:51 50° ENE 21:12:33 10° N
Delta 2 Rocket 3.9 21:05:08 10° WSW 21:08:27 30° S 21:11:31 10° ESE
PSLV R/B 4.0 21:06:43 10° SE 21:09:33 35° ENE 21:12:22 10° N
Cosmos 1898 Rocket 4.4 21:06:26 10° SSE 21:10:49 29° E 21:15:14 10° NE
Cosmos 1674 2.8 21:07:56 10° S 21:11:46 84° W 21:15:40 10° N
SPOT 1/Viking Rocket 4.5 21:08:24 10° SE 21:12:57 33° ENE 21:17:32 10° N
Cosmos 2151 2.9 21:09:35 10° S 21:13:45 68° E 21:17:57 10° NNE
deb Chang Zheng 4 3.6 21:11:00 10° NNE 21:15:21 88° WNW 21:19:42 10° SSW
NOSS 3-1 (A) 3.8 21:11:27 10° S 21:16:52 41° ESE 21:22:47 10° NE
Cosmos 2227 Rocket 3.7 21:14:01 10° SE 21:17:25 16° E 21:20:49 10° ENE
Nimbus 7 Rocket 4.4 21:12:04 10° NNE 21:17:56 73° ESE 21:23:47 10° S
YAOGAN 6 3.5 21:15:40 11° SE 21:18:44 33° ENE 21:22:00 10° N
Cosmos 2058 3.1 21:19:48 10° S 21:23:46 51° E 21:27:46 10° NNE
Cosmos 1300 3.2 21:21:58 10° N 21:25:40 44° ENE 21:28:45 14° SSE
DELTA 2 R/B(2) 3.5 21:26:33 10° WSW 21:28:07 40° S 21:29:44 15° E
Sich 1 3.7 21:26:07 11° SSE 21:30:01 37° E 21:34:04 10° NNE
SL-16 R/B 4.4 21:28:34 10° NNE 21:31:18 13° NE 21:34:00 10° ENE
Cosmos 2333 Rocket 3.4 21:27:53 10° N 21:32:56 30° NE 21:37:23 13° ESE
Cosmos 1633 Rocket 3.6 21:31:19 12° SSE 21:35:00 39° E 21:39:05 10° NNE
Cosmos 1151 Rocket 4.0 21:31:37 10° NNW 21:35:47 47° W 21:39:56 10° SSW
MetOp-A 4.1 21:30:57 11° SSE 21:36:11 78° ENE 21:41:33 10° N
Cosmos 1437 3.7 21:33:46 10° SSW 21:36:58 50° WNW 21:40:11 10° N
USA 245 3.0 21:38:04 22° ESE 21:39:05 33° ENE 21:41:12 10° N
ATLAS 2AS CENTAUR R/B 3.8 21:33:20 10° SSE 21:39:23 28° ESE 21:45:48 10° NE
Cosmos 2297 Rocket 3.6 21:42:05 16° SE 21:44:10 19° E 21:48:03 10° NE
COSMOS 2428 2.7 21:39:17 10° NNW 21:44:59 90° NNW 21:49:36 16° SSE
ARGOS 3.4 21:40:45 16° SE 21:45:00 55° ENE 21:50:16 10° N
Cosmos 1455 3.9 21:45:12 10° NNE 21:47:58 19° ENE 21:49:25 16° ESE
Envisat 3.7 21:43:14 10° S 21:48:10 51° W 21:53:08 10° NNW
Cosmos 2219 Rocket 2.6 21:43:40 10° NNW 21:49:07 50° ENE 21:53:00 19° SE
Cosmos 1939 Rocket 4.4 21:45:54 10° SSW 21:49:25 31° W 21:52:55 10° NNW
Terra 3.2 21:47:49 15° ESE 21:50:34 26° ENE 21:54:28 10° NNE
Cosmos 1805 Rocket 3.7 21:46:45 10° S 21:51:11 80° W 21:55:39 10° N
ATLAS 3B R/B 4.1 21:45:52 10° NNW 21:51:59 30° NE 21:57:46 10° E
ERBS 3.2 21:49:50 15° S 21:52:06 29° SE 21:55:10 10° ENE
USA 32 4.3 21:48:04 10° N 21:53:13 52° E 21:56:44 20° SSE
Cosmos 2315 Rocket 4.3 21:52:50 10° NNW 21:58:59 65° W 22:05:05 10° S
Cosmos 1726 2.1 21:57:34 10° N 22:01:22 84° W 22:03:46 21° S
NOSS 3-1 (C) 3.6 21:56:56 10° SW 22:02:48 76° NW 22:09:23 10° NNE
SL-08 RB Rocket 3.7 22:00:48 23° SSE 22:03:33 66° ENE 22:08:01 10° N
CZ-3A R/B 4.5 21:46:54 10° WSW 22:04:28 26° SSW 22:07:48 18° SSE
OTV 4 2.9 22:03:48 10° SSW 22:04:07 12° SSW 22:04:07 12° SSW
OAO 2 Rocket 4.0 22:01:35 10° SW 22:06:26 36° S 22:09:07 22° ESE
H-2A R/B 4.2 22:04:07 10° SSW 22:07:44 23° W 22:11:20 10° NW
Cosmos 1937 Rocket 3.4 22:02:44 10° S 22:07:55 69° ESE 22:13:07 10° NNE
Cosmos 220 Rocket 4.0 22:04:30 14° S 22:08:08 66° ESE 22:12:32 10° NNE
Cosmos 1707 Rocket 4.1 22:05:34 10° NNW 22:09:50 55° W 22:13:15 15° SSW
Cosmos 1980 4.1 22:04:20 10° NNW 22:09:53 53° ENE 22:13:10 24° SE
Cosmos 1869 4.4 22:10:03 10° NNE 22:13:42 31° ENE 22:14:57 26° ESE
Cosmos 1666 Rocket 4.0 22:09:35 10° SSW 22:13:56 61° W 22:18:20 10° N
Meteor 2-10 4.3 22:08:16 10° N 22:14:00 72° E 22:17:31 24° SSE
Cosmos 2298 Rocket 4.4 22:09:12 10° SSW 22:14:28 65° WNW 22:19:46 10° NNE
Cosmos 2219 4.5 22:11:13 10° SW 22:16:41 43° WNW 22:22:10 10° NNE
Cosmos 990 Rocket 4.0 22:13:36 19° S 22:17:12 59° ESE 22:22:16 10° NNE
Tiangong 1 0.9 22:14:18 10° WSW 22:17:24 85° SSE 22:18:55 27° E
CZ-4 R/B 3.8 22:13:07 10° NNE 22:18:05 90° ESE 22:22:06 15° SSW
Nadezhda 1 Rocket 4.0 22:12:52 10° N 22:18:56 63° E 22:22:31 26° SSE
Meteor 1-4 Rocket 2.7 22:15:43 10° NNW 22:19:28 71° W 22:21:09 30° S
Cosmos 2237 Rocket 2.4 22:16:33 10° NNW 22:22:13 61° ENE 22:25:15 28° SE
CZ-4C R/B 2.9 22:21:28 40° SSE 22:22:35 76° ENE 22:26:04 10° N
Cosmos 1271 Rocket 3.0 22:22:57 10° NNW 22:26:46 63° W 22:28:33 29° SSW
Cosmos 2082 3.7 22:23:04 18° S 22:27:18 62° ESE 22:32:57 10° NNE
Cosmos 1470 Rocket 3.4 22:25:29 30° S 22:27:33 74° E 22:31:52 10° NNE
Cosmos 1933 Rocket 3.5 22:26:29 30° S 22:28:39 73° E 22:33:08 10° NNE
CZ-4B R/B 4.3 22:24:56 10° N 22:30:03 53° WNW 22:35:04 10° SW
Cosmos 2360 Rocket 4.4 22:28:35 10° WNW 22:32:08 17° W 22:35:41 10° SW
Cosmos 1745 Rocket 4.0 22:27:24 17° S 22:32:18 89° W 22:38:31 10° N
NOSS 0 Rocket 3.9 22:27:53 10° NNW 22:34:04 83° WSW 22:37:22 29° SSE
Cosmos 1703 3.7 22:32:27 22° SSW 22:34:49 59° W 22:38:42 10° N
Iridium 2 3.9 22:33:22 30° SSW 22:35:07 70° W 22:38:59 10° N
H-2A R/B 2.1 22:36:57 31° SSE 22:39:36 86° ENE 22:45:05 10° NNW
Cosmos 1709 Rocket 4.3 22:37:58 30° SE 22:40:31 47° E 22:46:20 10° NNE
Cosmos 1626 2.0 22:41:26 48° S 22:42:24 84° E 22:46:11 10° N
SeaSat 1 4.1 22:46:37 16° E 22:49:13 24° NE 22:53:06 10° N
Cosmos 1386 Rocket 4.4 22:51:00 25° SSW 22:54:42 81° W 23:00:45 10° N
Lacrosse 4 Rocket 2.2 22:53:03 10° NNW 22:57:19 44° ENE 22:58:32 35° E
Cosmos 1125 Rocket 3.6 22:56:55 41° SSE 22:58:33 59° ESE 23:03:46 10° NNE
Cosmos 1048 Rocket 4.5 22:53:51 10° N 22:59:06 51° ENE 23:00:54 36° ESE
Cosmos 2227 Rocket 2.4 22:55:43 13° SSW 23:00:48 69° WNW 23:06:29 10° NNE
Cosmos 389 Rocket 4.1 22:58:23 10° NNE 23:01:12 24° ENE 23:01:12 24° ENE
Cosmos 1862 Rocket 4.2 23:04:35 10° NNW 23:08:45 47° W 23:10:03 35° SW
CARTOSAT-1 4.2 23:08:07 36° SW 23:09:20 46° W 23:13:31 10° NNW
CZ-4C R/B 4.4 23:03:41 10° NNW 23:09:24 27° NE 23:15:37 10° E
Cosmos 2181 Rocket 4.1 23:03:10 10° N 23:09:34 71° E 23:12:03 39° SSE
Spot 2 4.5 23:04:42 10° N 23:09:48 78° WNW 23:11:50 36° SSW
COSMOS 2455 2.8 23:05:47 10° NNW 23:11:51 77° ENE 23:14:03 41° SE
SAR-Lupe-2 4.3 23:15:11 42° WSW 23:15:25 42° W 23:18:51 10° NNW
SL-16 R/B 2.2 23:10:43 10° NNW 23:16:26 75° ENE 23:18:12 45° SE
Cosmos 1933 3.2 23:12:48 10° N 23:16:53 87° E 23:17:12 75° SSE
Cosmos 2333 Rocket 3.0 23:11:55 10° NW 23:17:19 42° WSW 23:19:24 31° SSW
Cosmos 372 Rocket 4.2 23:18:28 48° SE 23:19:10 52° ESE 23:24:16 10° NNE
Cosmos 1455 3.7 23:20:27 10° NNW 23:23:42 27° W 23:24:28 25° WSW
Cosmos 44 Rocket 3.5 23:23:54 52° SE 23:24:13 53° ESE 23:29:19 10° NE
FALCON 9 R/B 3.3 23:04:42 10° W 23:24:41 54° SSW 23:27:16 38° SE
BREEZE-M DEB (TANK) 3.1 23:23:46 10° WNW 23:25:19 45° WNW 23:25:19 45° WNW
Cosmos 2297 Rocket 2.6 23:23:49 20° SW 23:27:40 60° WNW 23:33:17 10° NNE
Terra 3.0 23:26:42 28° SW 23:28:09 34° W 23:32:30 10° NNW
ERBS 4.4 23:25:49 10° W 23:28:55 29° NW 23:32:00 10° NNE
ATLAS 2AS CENTAUR R/B 3.3 23:22:14 10° SW 23:29:44 69° NW 23:37:50 10° NNE
Cosmos 2219 Rocket 3.8 23:28:23 10° NW 23:32:41 23° WSW 23:34:43 19° SW
H-2A R/B 3.9 23:29:30 10° NE 23:32:31 26° E 23:32:31 26° E
Cosmos 1340 Rocket 4.5 23:34:55 22° ENE 23:34:55 22° ENE 23:37:15 10° NE
Cosmos 1733 Rocket 4.4 23:37:15 27° E 23:37:15 27° E 23:40:40 10° NNE
Cosmos 1869 Rocket 3.5 23:36:29 67° SSW 23:37:01 80° W 23:41:31 10° N
Aureole 2 Rocket 3.7 23:35:40 10° N 23:38:01 33° NE 23:38:01 33° NE
ATLAS 3B R/B 2.6 23:36:22 10° NW 23:43:19 70° WSW 23:45:16 47° S
CZ-4C R/B 4.1 23:45:36 39° NE 23:45:36 39° NE 23:48:28 10° N
COS B Rocket 3.7 23:45:40 10° N 23:49:29 55° W 23:49:37 55° W
Cosmos 1603 4.1 23:44:51 10° NNW 23:50:27 55° ENE 23:52:01 42° ESE
ALOS 2 3.0 23:52:44 49° E 23:52:55 49° ENE 23:57:10 10° N
Tiangong 1 4.1 23:50:58 10° W 23:51:01 10° W 23:51:01 10° W
